contact:dominique.lefevre@mio.osupytheas.fr, maurice.libes@osupytheas.fr, didier.mallarino@osupytheas.fr
Project:EMSO http://www.emso-fr.org/EMSO-France
Depth: 2436.0 m
Title:EMSO Ligure Ouest : Data MII capteur MICROCAT
DateTime_Computer,Latitude,Longitude,Temperature,Conductivity,Pressure,DateTime_Instrument
DateTime_Computer,Latitude,Longitude,degC,S m-1,dbar,DateTime_Instrument
2023-02-09T00:00:53Z,42.805,6.029,13.3054,4.60173,2470.637,2023-2-09T02:03:13Z
2023-02-09T00:03:56Z,42.805,6.029,13.3051,4.60158,2470.624,2023-2-09T02:06:16Z
2023-02-09T00:06:59Z,42.805,6.029,13.3045,4.60134,2470.637,2023-2-09T02:09:19Z
2023-02-09T00:10:02Z,42.805,6.029,13.3048,4.60172,2470.637,2023-2-09T02:12:22Z
2023-02-09T00:13:05Z,42.805,6.029,13.3044,4.60160,2470.661,2023-2-09T02:15:25Z
2023-02-09T00:16:08Z,42.805,6.029,13.3056,4.60143,2470.624,2023-2-09T02:18:28Z
2023-02-09T00:19:11Z,42.805,6.029,13.3040,4.60155,2470.624,2023-2-09T02:21:31Z
2023-02-09T00:22:14Z,42.805,6.029,13.3034,4.60140,2470.661,2023-2-09T02:24:34Z
2023-02-09T00:25:17Z,42.805,6.029,13.3042,4.60133,2470.67,2023-2-09T02:27:38Z
2023-02-09T00:28:20Z,42.805,6.029,13.3051,4.60145,2470.6,2023-2-09T02:30:41Z
2023-02-09T00:31:23Z,42.805,6.029,13.3043,4.60174,2470.637,2023-2-09T02:33:44Z
2023-02-09T00:34:26Z,42.805,6.029,13.3048,4.60167,2470.577,2023-2-09T02:36:47Z
2023-02-09T00:37:30Z,42.805,6.029,13.3047,4.60158,2470.624,2023-2-09T02:39:50Z
2023-02-09T00:40:33Z,42.805,6.029,13.3045,4.60155,2470.6,2023-2-09T02:42:53Z
2023-02-09T00:43:36Z,42.805,6.029,13.3046,4.60136,2470.624,2023-2-09T02:45:56Z
2023-02-09T00:46:39Z,42.805,6.029,13.3054,4.60159,2470.624,2023-2-09T02:48:59Z
2023-02-09T00:49:42Z,42.805,6.029,13.3037,4.60166,2470.637,2023-2-09T02:52:02Z
2023-02-09T00:52:45Z,42.805,6.029,13.3043,4.60133,2470.637,2023-2-09T02:55:05Z
2023-02-09T00:55:48Z,42.805,6.029,13.3058,4.60140,2470.624,2023-2-09T02:58:08Z
2023-02-09T00:58:51Z,42.805,6.029,13.3051,4.60148,2470.6,2023-2-09T03:01:11Z
2023-02-09T01:01:54Z,42.805,6.029,13.3040,4.60157,2470.6,2023-2-09T03:04:15Z
2023-02-09T01:04:57Z,42.805,6.029,13.3051,4.60144,2470.6,2023-2-09T03:07:18Z
2023-02-09T01:08:00Z,42.805,6.029,13.3052,4.60140,2470.591,2023-2-09T03:10:21Z
2023-02-09T01:11:03Z,42.805,6.029,13.3045,4.60141,2470.637,2023-2-09T03:13:24Z
2023-02-09T01:14:06Z,42.805,6.029,13.3044,4.60142,2470.614,2023-2-09T03:16:27Z
2023-02-09T01:17:10Z,42.805,6.029,13.3050,4.60164,2470.624,2023-2-09T03:19:30Z
2023-02-09T01:20:13Z,42.805,6.029,13.3048,4.60148,2470.577,2023-2-09T03:22:33Z
2023-02-09T01:23:16Z,42.805,6.029,13.3043,4.60155,2470.614,2023-2-09T03:25:36Z
2023-02-09T01:26:19Z,42.805,6.029,13.3068,4.60161,2470.614,2023-2-09T03:28:39Z
2023-02-09T01:29:22Z,42.805,6.029,13.3039,4.60138,2470.614,2023-2-09T03:31:42Z
2023-02-09T01:32:25Z,42.805,6.029,13.3047,4.60154,2470.577,2023-2-09T03:34:45Z
2023-02-09T01:35:28Z,42.805,6.029,13.3050,4.60137,2470.577,2023-2-09T03:37:48Z
2023-02-09T01:38:31Z,42.805,6.029,13.3046,4.60155,2470.614,2023-2-09T03:40:51Z
2023-02-09T01:41:34Z,42.805,6.029,13.3043,4.60154,2470.577,2023-2-09T03:43:55Z
2023-02-09T01:44:37Z,42.805,6.029,13.3042,4.60152,2470.577,2023-2-09T03:46:58Z
2023-02-09T01:47:40Z,42.805,6.029,13.3043,4.60141,2470.577,2023-2-09T03:50:01Z
2023-02-09T01:50:43Z,42.805,6.029,13.3046,4.60149,2470.577,2023-2-09T03:53:04Z
2023-02-09T01:53:46Z,42.805,6.029,13.3037,4.60150,2470.591,2023-2-09T03:56:07Z
2023-02-09T01:56:49Z,42.805,6.029,13.3049,4.60135,2470.591,2023-2-09T03:59:10Z
2023-02-09T01:59:53Z,42.805,6.029,13.3047,4.60135,2470.591,2023-2-09T04:02:13Z
2023-02-09T02:02:56Z,42.805,6.029,13.3053,4.60172,2470.53,2023-2-09T04:05:16Z
2023-02-09T02:05:59Z,42.805,6.029,13.3051,4.60158,2470.567,2023-2-09T04:08:19Z
2023-02-09T02:09:02Z,42.805,6.029,13.3037,4.60150,2470.6,2023-2-09T04:11:22Z
2023-02-09T02:12:05Z,42.805,6.029,13.3050,4.60130,2470.53,2023-2-09T04:14:25Z
2023-02-09T02:15:08Z,42.805,6.029,13.3040,4.60157,2470.567,2023-2-09T04:17:28Z
2023-02-09T02:18:11Z,42.805,6.029,13.3043,4.60121,2470.53,2023-2-09T04:20:31Z
2023-02-09T02:21:14Z,42.805,6.029,13.3050,4.60145,2470.553,2023-2-09T04:23:34Z
2023-02-09T02:24:17Z,42.805,6.029,13.3050,4.60170,2470.577,2023-2-09T04:26:38Z
2023-02-09T02:27:20Z,42.805,6.029,13.3045,4.60150,2470.6,2023-2-09T04:29:41Z
2023-02-09T02:30:23Z,42.805,6.029,13.3034,4.60135,2470.577,2023-2-09T04:32:44Z
2023-02-09T02:33:26Z,42.805,6.029,13.3042,4.60114,2470.553,2023-2-09T04:35:47Z
2023-02-09T02:36:30Z,42.805,6.029,13.3041,4.60118,2470.614,2023-2-09T04:38:50Z
2023-02-09T02:39:33Z,42.805,6.029,13.3054,4.60127,2470.53,2023-2-09T04:41:53Z
2023-02-09T02:42:36Z,42.805,6.029,13.3042,4.60104,2470.591,2023-2-09T04:44:56Z
2023-02-09T02:45:39Z,42.805,6.029,13.3037,4.60131,2470.553,2023-2-09T04:47:59Z
2023-02-09T02:48:42Z,42.805,6.029,13.3034,4.60119,2470.553,2023-2-09T04:51:02Z
2023-02-09T02:51:45Z,42.805,6.029,13.3040,4.60118,2470.577,2023-2-09T04:54:05Z
2023-02-09T02:54:48Z,42.805,6.029,13.3035,4.60150,2470.577,2023-2-09T04:57:08Z
2023-02-09T02:57:51Z,42.805,6.029,13.3032,4.60119,2470.553,2023-2-09T05:00:11Z
2023-02-09T03:00:54Z,42.805,6.029,13.3038,4.60125,2470.553,2023-2-09T05:03:15Z
2023-02-09T03:03:57Z,42.805,6.029,13.3042,4.60132,2470.577,2023-2-09T05:06:18Z
2023-02-09T03:07:00Z,42.805,6.029,13.3039,4.60123,2470.577,2023-2-09T05:09:21Z
2023-02-09T03:10:03Z,42.805,6.029,13.3034,4.60122,2470.53,2023-2-09T05:12:24Z
2023-02-09T03:13:06Z,42.805,6.029,13.3044,4.60119,2470.53,2023-2-09T05:15:27Z
2023-02-09T03:16:09Z,42.805,6.029,13.3041,4.60128,2470.53,2023-2-09T05:18:30Z
2023-02-09T03:19:13Z,42.805,6.029,13.3034,4.60112,2470.553,2023-2-09T05:21:33Z
2023-02-09T03:22:16Z,42.805,6.029,13.3039,4.60144,2470.53,2023-2-09T05:24:36Z
2023-02-09T03:25:19Z,42.805,6.029,13.3039,4.60110,2470.544,2023-2-09T05:27:39Z
2023-02-09T03:28:22Z,42.805,6.029,13.3050,4.60128,2470.553,2023-2-09T05:30:42Z
2023-02-09T03:31:25Z,42.805,6.029,13.3054,4.60149,2470.553,2023-2-09T05:33:45Z
2023-02-09T03:34:28Z,42.805,6.029,13.3045,4.60151,2470.516,2023-2-09T05:36:48Z
2023-02-09T03:37:31Z,42.805,6.029,13.3036,4.60128,2470.553,2023-2-09T05:39:51Z
2023-02-09T03:40:34Z,42.805,6.029,13.3039,4.60117,2470.553,2023-2-09T05:42:55Z
2023-02-09T03:43:37Z,42.805,6.029,13.3038,4.60110,2470.553,2023-2-09T05:45:58Z
2023-02-09T03:46:40Z,42.805,6.029,13.3038,4.60114,2470.553,2023-2-09T05:49:01Z
2023-02-09T03:49:43Z,42.805,6.029,13.3042,4.60115,2470.553,2023-2-09T05:52:04Z
2023-02-09T03:52:46Z,42.805,6.029,13.3037,4.60139,2470.567,2023-2-09T05:55:07Z
2023-02-09T03:55:49Z,42.805,6.029,13.3037,4.60139,2470.567,2023-2-09T05:58:10Z
2023-02-09T03:58:53Z,42.805,6.029,13.3046,4.60150,2470.544,2023-2-09T06:01:13Z
2023-02-09T04:01:56Z,42.805,6.029,13.3046,4.60146,2470.553,2023-2-09T06:04:16Z
2023-02-09T04:04:59Z,42.805,6.029,13.3050,4.60147,2470.567,2023-2-09T06:07:19Z
2023-02-09T04:08:02Z,42.805,6.029,13.3059,4.60148,2470.553,2023-2-09T06:10:22Z
2023-02-09T04:11:05Z,42.805,6.029,13.3046,4.60160,2470.544,2023-2-09T06:13:25Z
2023-02-09T04:14:08Z,42.805,6.029,13.3048,4.60167,2470.567,2023-2-09T06:16:28Z
2023-02-09T04:17:11Z,42.805,6.029,13.3070,4.60167,2470.553,2023-2-09T06:19:31Z
2023-02-09T04:20:14Z,42.805,6.029,13.3062,4.60157,2470.53,2023-2-09T06:22:35Z
2023-02-09T04:23:17Z,42.805,6.029,13.3064,4.60167,2470.567,2023-2-09T06:25:38Z
2023-02-09T04:26:20Z,42.805,6.029,13.3063,4.60170,2470.544,2023-2-09T06:28:41Z
2023-02-09T04:29:23Z,42.805,6.029,13.3060,4.60142,2470.567,2023-2-09T06:31:44Z
2023-02-09T04:32:26Z,42.805,6.029,13.3073,4.60135,2470.53,2023-2-09T06:34:47Z
2023-02-09T04:35:29Z,42.805,6.029,13.3081,4.60135,2470.591,2023-2-09T06:37:50Z
2023-02-09T04:38:33Z,42.805,6.029,13.3076,4.60176,2470.567,2023-2-09T06:40:53Z
2023-02-09T04:41:36Z,42.805,6.029,13.3085,4.60155,2470.544,2023-2-09T06:43:56Z
2023-02-09T04:44:39Z,42.805,6.029,13.3070,4.60160,2470.53,2023-2-09T06:46:59Z
2023-02-09T04:47:42Z,42.805,6.029,13.3104,4.60173,2470.577,2023-2-09T06:50:02Z
2023-02-09T04:50:45Z,42.805,6.029,13.3076,4.60160,2470.553,2023-2-09T06:53:05Z
2023-02-09T04:53:48Z,42.805,6.029,13.3089,4.60186,2470.567,2023-2-09T06:56:08Z
2023-02-09T04:56:51Z,42.805,6.029,13.3117,4.60145,2470.544,2023-2-09T06:59:11Z
2023-02-09T04:59:54Z,42.805,6.029,13.3118,4.60156,2470.544,2023-2-09T07:02:15Z
2023-02-09T05:02:57Z,42.805,6.029,13.3073,4.60185,2470.53,2023-2-09T07:05:18Z
2023-02-09T05:06:00Z,42.805,6.029,13.3083,4.60179,2470.567,2023-2-09T07:08:21Z
2023-02-09T05:09:03Z,42.805,6.029,13.3080,4.60122,2470.567,2023-2-09T07:11:24Z
2023-02-09T05:12:06Z,42.805,6.029,13.3075,4.60158,2470.577,2023-2-09T07:14:27Z
2023-02-09T05:15:09Z,42.805,6.029,13.3073,4.60158,2470.553,2023-2-09T07:17:30Z
2023-02-09T05:18:13Z,42.805,6.029,13.3060,4.60186,2470.577,2023-2-09T07:20:33Z
2023-02-09T05:21:16Z,42.805,6.029,13.3075,4.60171,2470.591,2023-2-09T07:23:36Z
2023-02-09T05:24:19Z,42.805,6.029,13.3099,4.60167,2470.567,2023-2-09T07:26:39Z
2023-02-09T05:27:22Z,42.805,6.029,13.3094,4.60135,2470.6,2023-2-09T07:29:42Z
2023-02-09T05:30:25Z,42.805,6.029,13.3090,4.60178,2470.614,2023-2-09T07:32:45Z
2023-02-09T05:33:28Z,42.805,6.029,13.3106,4.60154,2470.6,2023-2-09T07:35:48Z
2023-02-09T05:36:31Z,42.805,6.029,13.3095,4.60153,2470.591,2023-2-09T07:38:51Z
2023-02-09T05:39:34Z,42.805,6.029,13.3093,4.60136,2470.591,2023-2-09T07:41:55Z
2023-02-09T05:42:37Z,42.805,6.029,13.3069,4.60134,2470.614,2023-2-09T07:44:58Z
2023-02-09T05:45:40Z,42.805,6.029,13.3065,4.60112,2470.591,2023-2-09T07:48:01Z
2023-02-09T05:48:43Z,42.805,6.029,13.3082,4.60137,2470.6,2023-2-09T07:51:04Z
2023-02-09T05:51:46Z,42.805,6.029,13.3043,4.60140,2470.6,2023-2-09T07:54:07Z
2023-02-09T05:54:49Z,42.805,6.029,13.3057,4.60185,2470.6,2023-2-09T07:57:10Z
2023-02-09T05:57:53Z,42.805,6.029,13.3093,4.60180,2470.646,2023-2-09T08:00:13Z
2023-02-09T06:00:56Z,42.805,6.029,13.3090,4.60205,2470.624,2023-2-09T08:03:16Z
2023-02-09T06:03:59Z,42.805,6.029,13.3106,4.60166,2470.614,2023-2-09T08:06:19Z
2023-02-09T06:07:02Z,42.805,6.029,13.3084,4.60167,2470.637,2023-2-09T08:09:22Z
2023-02-09T06:10:05Z,42.805,6.029,13.3093,4.60190,2470.614,2023-2-09T08:12:25Z
2023-02-09T06:13:08Z,42.805,6.029,13.3093,4.60185,2470.624,2023-2-09T08:15:28Z
2023-02-09T06:16:11Z,42.805,6.029,13.3110,4.60190,2470.624,2023-2-09T08:18:31Z
2023-02-09T06:19:14Z,42.805,6.029,13.3070,4.60207,2470.646,2023-2-09T08:21:34Z
2023-02-09T06:22:17Z,42.805,6.029,13.3076,4.60165,2470.646,2023-2-09T08:24:38Z
2023-02-09T06:25:20Z,42.805,6.029,13.3057,4.60150,2470.661,2023-2-09T08:27:41Z
2023-02-09T06:28:23Z,42.805,6.029,13.3068,4.60118,2470.646,2023-2-09T08:30:44Z
2023-02-09T06:31:26Z,42.805,6.029,13.3098,4.60147,2470.661,2023-2-09T08:33:47Z
2023-02-09T06:34:29Z,42.805,6.029,13.3066,4.60138,2470.646,2023-2-09T08:36:50Z
2023-02-09T06:37:32Z,42.805,6.029,13.3073,4.60114,2470.624,2023-2-09T08:39:53Z
2023-02-09T06:40:36Z,42.805,6.029,13.3091,4.60139,2470.624,2023-2-09T08:42:56Z
2023-02-09T06:43:39Z,42.805,6.029,13.3076,4.60108,2470.624,2023-2-09T08:45:59Z
2023-02-09T06:46:42Z,42.805,6.029,13.3076,4.60103,2470.67,2023-2-09T08:49:02Z
2023-02-09T06:49:45Z,42.805,6.029,13.3053,4.60147,2470.67,2023-2-09T08:52:05Z
2023-02-09T06:52:48Z,42.805,6.029,13.3069,4.60160,2470.67,2023-2-09T08:55:08Z
2023-02-09T06:55:51Z,42.805,6.029,13.3084,4.60131,2470.684,2023-2-09T08:58:11Z
2023-02-09T06:58:54Z,42.805,6.029,13.3073,4.60120,2470.661,2023-2-09T09:01:14Z
2023-02-09T07:01:57Z,42.805,6.029,13.3083,4.60120,2470.693,2023-2-09T09:04:18Z
2023-02-09T07:05:00Z,42.805,6.029,13.3058,4.60112,2470.684,2023-2-09T09:07:21Z
2023-02-09T07:08:03Z,42.805,6.029,13.3062,4.60129,2470.693,2023-2-09T09:10:24Z
2023-02-09T07:11:06Z,42.805,6.029,13.3069,4.60117,2470.693,2023-2-09T09:13:27Z
2023-02-09T07:14:09Z,42.805,6.029,13.3076,4.60119,2470.707,2023-2-09T09:16:30Z
2023-02-09T07:17:12Z,42.805,6.029,13.3057,4.60119,2470.73,2023-2-09T09:19:33Z
2023-02-09T07:20:16Z,42.805,6.029,13.3057,4.60110,2470.693,2023-2-09T09:22:36Z
2023-02-09T07:23:19Z,42.805,6.029,13.3077,4.60118,2470.707,2023-2-09T09:25:39Z
2023-02-09T07:26:22Z,42.805,6.029,13.3078,4.60110,2470.707,2023-2-09T09:28:42Z
2023-02-09T07:29:25Z,42.805,6.029,13.3064,4.60112,2470.73,2023-2-09T09:31:45Z
2023-02-09T11:43:08Z,42.805,6.029,13.3022,4.60079,2470.693,2023-2-09T13:45:29Z
2023-02-09T11:46:11Z,42.805,6.029,13.3022,4.60078,2470.684,2023-2-09T13:48:32Z
2023-02-09T11:49:14Z,42.805,6.029,13.3026,4.60086,2470.661,2023-2-09T13:51:35Z
2023-02-09T11:52:17Z,42.805,6.029,13.3026,4.60097,2470.693,2023-2-09T13:54:38Z
2023-02-09T11:55:20Z,42.805,6.029,13.3029,4.60091,2470.656,2023-2-09T13:57:41Z
2023-02-09T11:58:23Z,42.805,6.029,13.3025,4.60091,2470.67,2023-2-09T14:00:44Z
2023-02-09T12:01:26Z,42.805,6.029,13.3032,4.60126,2470.646,2023-2-09T14:03:47Z
2023-02-09T12:04:29Z,42.805,6.029,13.3036,4.60140,2470.684,2023-2-09T14:06:50Z
2023-02-09T12:07:33Z,42.805,6.029,13.3018,4.60172,2470.624,2023-2-09T14:09:53Z
2023-02-09T12:10:36Z,42.805,6.029,13.3024,4.60117,2470.661,2023-2-09T14:12:56Z
2023-02-09T12:13:39Z,42.805,6.029,13.3037,4.60131,2470.67,2023-2-09T14:15:59Z
2023-02-09T12:16:42Z,42.805,6.029,13.3019,4.60164,2470.624,2023-2-09T14:19:02Z
2023-02-09T12:19:45Z,42.805,6.029,13.3016,4.60217,2470.661,2023-2-09T14:22:05Z
2023-02-09T12:22:48Z,42.805,6.029,13.3018,4.60164,2470.637,2023-2-09T14:25:09Z
2023-02-09T12:25:51Z,42.805,6.029,13.3023,4.60186,2470.646,2023-2-09T14:28:12Z
2023-02-09T12:28:54Z,42.805,6.029,13.3021,4.60149,2470.646,2023-2-09T14:31:15Z
2023-02-09T12:31:57Z,42.805,6.029,13.3017,4.60168,2470.586,2023-2-09T14:34:18Z
2023-02-09T12:35:00Z,42.805,6.029,13.3022,4.60167,2470.661,2023-2-09T14:37:21Z
2023-02-09T12:38:03Z,42.805,6.029,13.3013,4.60212,2470.624,2023-2-09T14:40:24Z
2023-02-09T12:41:06Z,42.805,6.029,13.3019,4.60155,2470.646,2023-2-09T14:43:27Z
2023-02-09T12:44:10Z,42.805,6.029,13.3019,4.60175,2470.624,2023-2-09T14:46:30Z
2023-02-09T12:47:13Z,42.805,6.029,13.3024,4.60190,2470.67,2023-2-09T14:49:33Z
2023-02-09T12:50:16Z,42.805,6.029,13.3018,4.60205,2470.637,2023-2-09T14:52:36Z
2023-02-09T12:53:19Z,42.805,6.029,13.3019,4.60139,2470.624,2023-2-09T14:55:39Z
2023-02-09T12:56:22Z,42.805,6.029,13.3021,4.60195,2470.6,2023-2-09T14:58:42Z
2023-02-09T12:59:25Z,42.805,6.029,13.3021,4.60170,2470.614,2023-2-09T15:01:46Z
2023-02-09T13:02:28Z,42.805,6.029,13.3019,4.60157,2470.624,2023-2-09T15:04:49Z
2023-02-09T13:05:31Z,42.805,6.029,13.3018,4.60174,2470.614,2023-2-09T15:07:52Z
2023-02-09T13:08:34Z,42.805,6.029,13.3018,4.60167,2470.646,2023-2-09T15:10:55Z
2023-02-09T13:11:37Z,42.805,6.029,13.3022,4.60157,2470.646,2023-2-09T15:13:58Z
2023-02-09T13:14:40Z,42.805,6.029,13.3024,4.60147,2470.577,2023-2-09T15:17:01Z
2023-02-09T13:17:43Z,42.805,6.029,13.3024,4.60140,2470.637,2023-2-09T15:20:04Z
2023-02-09T13:20:46Z,42.805,6.029,13.3025,4.60160,2470.624,2023-2-09T15:23:07Z
2023-02-09T13:23:50Z,42.805,6.029,13.3032,4.60190,2470.637,2023-2-09T15:26:10Z
2023-02-09T13:26:53Z,42.805,6.029,13.3057,4.60175,2470.6,2023-2-09T15:29:13Z
2023-02-09T13:29:56Z,42.805,6.029,13.3065,4.60104,2470.614,2023-2-09T15:32:16Z
2023-02-09T13:32:59Z,42.805,6.029,13.3029,4.60089,2470.6,2023-2-09T15:35:19Z
2023-02-09T13:36:02Z,42.805,6.029,13.3022,4.60081,2470.6,2023-2-09T15:38:23Z
2023-02-09T13:39:05Z,42.805,6.029,13.3024,4.60086,2470.624,2023-2-09T15:41:26Z
2023-02-09T13:42:08Z,42.805,6.029,13.3021,4.60079,2470.6,2023-2-09T15:44:29Z
2023-02-09T13:45:11Z,42.805,6.029,13.3024,4.60079,2470.624,2023-2-09T15:47:32Z
2023-02-09T13:48:14Z,42.805,6.029,13.3022,4.60083,2470.6,2023-2-09T15:50:35Z
2023-02-09T13:51:17Z,42.805,6.029,13.3021,4.60076,2470.624,2023-2-09T15:53:38Z
2023-02-09T13:54:20Z,42.805,6.029,13.3021,4.60079,2470.614,2023-2-09T15:56:41Z
2023-02-09T13:57:23Z,42.805,6.029,13.3021,4.60078,2470.628,2023-2-09T15:59:44Z
2023-02-09T14:00:27Z,42.805,6.029,13.3017,4.60081,2470.577,2023-2-09T16:02:47Z
2023-02-09T14:03:30Z,42.805,6.029,13.3021,4.60075,2470.614,2023-2-09T16:05:50Z
2023-02-09T14:06:33Z,42.805,6.029,13.3017,4.60076,2470.6,2023-2-09T16:08:53Z
2023-02-09T14:09:36Z,42.805,6.029,13.3018,4.60075,2470.6,2023-2-09T16:11:56Z
2023-02-09T14:12:39Z,42.805,6.029,13.3021,4.60079,2470.591,2023-2-09T16:14:59Z
2023-02-09T14:15:42Z,42.805,6.029,13.3020,4.60079,2470.577,2023-2-09T16:18:03Z
2023-02-09T14:18:45Z,42.805,6.029,13.3023,4.60081,2470.577,2023-2-09T16:21:06Z
2023-02-09T14:21:48Z,42.805,6.029,13.3017,4.60081,2470.637,2023-2-09T16:24:09Z
2023-02-09T14:24:51Z,42.805,6.029,13.3021,4.60080,2470.614,2023-2-09T16:27:12Z
2023-02-09T14:27:54Z,42.805,6.029,13.3015,4.60084,2470.637,2023-2-09T16:30:15Z
2023-02-09T14:30:57Z,42.805,6.029,13.3016,4.60091,2470.577,2023-2-09T16:33:18Z
2023-02-09T14:34:00Z,42.805,6.029,13.3019,4.60080,2470.577,2023-2-09T16:36:21Z
2023-02-09T14:37:03Z,42.805,6.029,13.3019,4.60079,2470.577,2023-2-09T16:39:24Z
2023-02-09T14:40:07Z,42.805,6.029,13.3024,4.60085,2470.6,2023-2-09T16:42:27Z
2023-02-09T14:43:10Z,42.805,6.029,13.3017,4.60088,2470.591,2023-2-09T16:45:30Z
2023-02-09T14:46:13Z,42.805,6.029,13.3020,4.60087,2470.6,2023-2-09T16:48:33Z
2023-02-09T14:49:16Z,42.805,6.029,13.3015,4.60089,2470.577,2023-2-09T16:51:37Z
2023-02-09T14:52:19Z,42.805,6.029,13.3025,4.60089,2470.577,2023-2-09T16:54:40Z
2023-02-09T14:55:22Z,42.805,6.029,13.3022,4.60092,2470.6,2023-2-09T16:57:43Z
2023-02-09T14:58:25Z,42.805,6.029,13.3018,4.60087,2470.563,2023-2-09T17:00:46Z
2023-02-09T15:01:28Z,42.805,6.029,13.3018,4.60084,2470.553,2023-2-09T17:03:49Z
2023-02-09T15:04:31Z,42.805,6.029,13.3022,4.60095,2470.577,2023-2-09T17:06:52Z
2023-02-09T15:07:34Z,42.805,6.029,13.3022,4.60085,2470.577,2023-2-09T17:09:55Z
2023-02-09T15:10:37Z,42.805,6.029,13.3029,4.60091,2470.553,2023-2-09T17:12:58Z
2023-02-09T15:13:40Z,42.805,6.029,13.3018,4.60094,2470.6,2023-2-09T17:16:01Z
2023-02-09T15:16:44Z,42.805,6.029,13.3041,4.60087,2470.553,2023-2-09T17:19:04Z
2023-02-09T15:19:47Z,42.805,6.029,13.3065,4.60104,2470.567,2023-2-09T17:22:07Z
2023-02-09T15:22:50Z,42.805,6.029,13.3027,4.60102,2470.553,2023-2-09T17:25:10Z
2023-02-09T15:25:53Z,42.805,6.029,13.3021,4.60087,2470.6,2023-2-09T17:28:13Z
2023-02-09T15:28:56Z,42.805,6.029,13.3021,4.60081,2470.553,2023-2-09T17:31:17Z
2023-02-09T15:31:59Z,42.805,6.029,13.3024,4.60081,2470.553,2023-2-09T17:34:20Z
2023-02-09T15:35:02Z,42.805,6.029,13.3036,4.60083,2470.553,2023-2-09T17:37:23Z
2023-02-09T15:38:05Z,42.805,6.029,13.3038,4.60110,2470.553,2023-2-09T17:40:26Z
2023-02-09T15:41:08Z,42.805,6.029,13.3036,4.60126,2470.553,2023-2-09T17:43:29Z
2023-02-09T15:44:11Z,42.805,6.029,13.3074,4.60117,2470.53,2023-2-09T17:46:32Z
2023-02-09T15:47:14Z,42.805,6.029,13.3058,4.60099,2470.553,2023-2-09T17:49:35Z
2023-02-09T15:50:17Z,42.805,6.029,13.3070,4.60088,2470.591,2023-2-09T17:52:38Z
2023-02-09T15:53:21Z,42.805,6.029,13.3034,4.60128,2470.614,2023-2-09T17:55:41Z
2023-02-09T15:56:24Z,42.805,6.029,13.3036,4.60095,2470.53,2023-2-09T17:58:44Z
2023-02-09T15:59:27Z,42.805,6.029,13.3026,4.60087,2470.53,2023-2-09T18:01:47Z
2023-02-09T16:02:30Z,42.805,6.029,13.3032,4.60102,2470.577,2023-2-09T18:04:50Z
2023-02-09T16:05:33Z,42.805,6.029,13.3024,4.60085,2470.544,2023-2-09T18:07:54Z
2023-02-09T16:08:36Z,42.805,6.029,13.3031,4.60082,2470.544,2023-2-09T18:10:57Z
2023-02-09T16:11:39Z,42.805,6.029,13.3038,4.60102,2470.544,2023-2-09T18:14:00Z
2023-02-09T16:14:42Z,42.805,6.029,13.3040,4.60126,2470.53,2023-2-09T18:17:03Z
2023-02-09T16:17:45Z,42.805,6.029,13.3060,4.60108,2470.544,2023-2-09T18:20:06Z
2023-02-09T16:20:48Z,42.805,6.029,13.3063,4.60120,2470.53,2023-2-09T18:23:09Z
2023-02-09T16:23:51Z,42.805,6.029,13.3058,4.60114,2470.53,2023-2-09T18:26:12Z
2023-02-09T16:26:54Z,42.805,6.029,13.3059,4.60162,2470.53,2023-2-09T18:29:15Z
2023-02-09T16:29:57Z,42.805,6.029,13.3056,4.60157,2470.591,2023-2-09T18:32:18Z
2023-02-09T16:33:01Z,42.805,6.029,13.3061,4.60122,2470.553,2023-2-09T18:35:21Z
2023-02-09T16:36:04Z,42.805,6.029,13.3053,4.60161,2470.53,2023-2-09T18:38:24Z
2023-02-09T16:39:07Z,42.805,6.029,13.3055,4.60141,2470.53,2023-2-09T18:41:27Z
2023-02-09T16:42:10Z,42.805,6.029,13.3066,4.60153,2470.567,2023-2-09T18:44:30Z
2023-02-09T16:45:13Z,42.805,6.029,13.3070,4.60153,2470.567,2023-2-09T18:47:34Z
2023-02-09T16:48:16Z,42.805,6.029,13.3070,4.60145,2470.591,2023-2-09T18:50:37Z
2023-02-09T16:51:19Z,42.805,6.029,13.3061,4.60117,2470.553,2023-2-09T18:53:40Z
2023-02-09T16:54:22Z,42.805,6.029,13.3055,4.60142,2470.577,2023-2-09T18:56:43Z
2023-02-09T16:57:25Z,42.805,6.029,13.3061,4.60149,2470.553,2023-2-09T18:59:46Z
2023-02-09T17:00:28Z,42.805,6.029,13.3067,4.60175,2470.553,2023-2-09T19:02:49Z
2023-02-09T17:03:31Z,42.805,6.029,13.3040,4.60169,2470.53,2023-2-09T19:05:52Z
2023-02-09T17:06:34Z,42.805,6.029,13.3045,4.60170,2470.53,2023-2-09T19:08:55Z
2023-02-09T17:09:38Z,42.805,6.029,13.3043,4.60165,2470.553,2023-2-09T19:11:58Z
2023-02-09T17:12:41Z,42.805,6.029,13.3058,4.60140,2470.507,2023-2-09T19:15:01Z
2023-02-09T17:15:44Z,42.805,6.029,13.3064,4.60175,2470.567,2023-2-09T19:18:04Z
2023-02-09T17:18:47Z,42.805,6.029,13.3071,4.60163,2470.553,2023-2-09T19:21:07Z
2023-02-09T17:21:50Z,42.805,6.029,13.3055,4.60146,2470.52,2023-2-09T19:24:11Z
2023-02-09T17:24:53Z,42.805,6.029,13.3077,4.60160,2470.52,2023-2-09T19:27:14Z
2023-02-09T17:27:56Z,42.805,6.029,13.3048,4.60185,2470.591,2023-2-09T19:30:17Z
2023-02-09T17:30:59Z,42.805,6.029,13.3055,4.60188,2470.567,2023-2-09T19:33:20Z
2023-02-09T17:34:02Z,42.805,6.029,13.3062,4.60168,2470.567,2023-2-09T19:36:23Z
2023-02-09T17:37:05Z,42.805,6.029,13.3056,4.60157,2470.553,2023-2-09T19:39:26Z
2023-02-09T17:40:08Z,42.805,6.029,13.3053,4.60171,2470.591,2023-2-09T19:42:29Z
2023-02-09T17:43:11Z,42.805,6.029,13.3063,4.60164,2470.553,2023-2-09T19:45:32Z
2023-02-09T17:46:15Z,42.805,6.029,13.3050,4.60140,2470.544,2023-2-09T19:48:35Z
2023-02-09T17:49:18Z,42.805,6.029,13.3046,4.60146,2470.567,2023-2-09T19:51:38Z
2023-02-09T17:52:21Z,42.805,6.029,13.3054,4.60154,2470.591,2023-2-09T19:54:41Z
2023-02-09T17:55:24Z,42.805,6.029,13.3053,4.60155,2470.6,2023-2-09T19:57:44Z
2023-02-09T17:58:27Z,42.805,6.029,13.3056,4.60120,2470.567,2023-2-09T20:00:48Z
2023-02-09T18:01:30Z,42.805,6.029,13.3058,4.60145,2470.567,2023-2-09T20:03:51Z
2023-02-09T18:04:33Z,42.805,6.029,13.3054,4.60164,2470.553,2023-2-09T20:06:54Z
2023-02-09T18:07:36Z,42.805,6.029,13.3045,4.60183,2470.577,2023-2-09T20:09:57Z
2023-02-09T18:10:39Z,42.805,6.029,13.3050,4.60157,2470.577,2023-2-09T20:13:00Z
2023-02-09T18:13:42Z,42.805,6.029,13.3051,4.60145,2470.577,2023-2-09T20:16:03Z
2023-02-09T18:16:45Z,42.805,6.029,13.3041,4.60135,2470.614,2023-2-09T20:19:06Z
2023-02-09T18:19:48Z,42.805,6.029,13.3045,4.60148,2470.577,2023-2-09T20:22:09Z
2023-02-09T18:22:51Z,42.805,6.029,13.3056,4.60129,2470.591,2023-2-09T20:25:12Z
2023-02-09T18:25:55Z,42.805,6.029,13.3043,4.60146,2470.591,2023-2-09T20:28:15Z
2023-02-09T18:28:58Z,42.805,6.029,13.3031,4.60151,2470.614,2023-2-09T20:31:18Z
2023-02-09T18:32:01Z,42.805,6.029,13.3033,4.60132,2470.6,2023-2-09T20:34:21Z
2023-02-09T18:35:04Z,42.805,6.029,13.3039,4.60119,2470.6,2023-2-09T20:37:25Z
2023-02-09T18:38:07Z,42.805,6.029,13.3036,4.60133,2470.614,2023-2-09T20:40:28Z
2023-02-09T18:41:10Z,42.805,6.029,13.3032,4.60148,2470.614,2023-2-09T20:43:31Z
2023-02-09T18:44:13Z,42.805,6.029,13.3046,4.60136,2470.591,2023-2-09T20:46:34Z
2023-02-09T18:47:16Z,42.805,6.029,13.3035,4.60145,2470.624,2023-2-09T20:49:37Z
2023-02-09T18:50:19Z,42.805,6.029,13.3043,4.60192,2470.624,2023-2-09T20:52:40Z
2023-02-09T18:53:22Z,42.805,6.029,13.3031,4.60130,2470.624,2023-2-09T20:55:43Z
2023-02-09T18:56:25Z,42.805,6.029,13.3034,4.60130,2470.637,2023-2-09T20:58:46Z
2023-02-09T18:59:28Z,42.805,6.029,13.3049,4.60178,2470.614,2023-2-09T21:01:49Z
2023-02-09T19:02:31Z,42.805,6.029,13.3039,4.60175,2470.637,2023-2-09T21:04:52Z
2023-02-09T19:05:35Z,42.805,6.029,13.3032,4.60117,2470.624,2023-2-09T21:07:55Z
2023-02-09T19:08:38Z,42.805,6.029,13.3031,4.60147,2470.661,2023-2-09T21:10:58Z
2023-02-09T19:11:41Z,42.805,6.029,13.3036,4.60119,2470.624,2023-2-09T21:14:02Z
2023-02-09T19:14:44Z,42.805,6.029,13.3029,4.60102,2470.61,2023-2-09T21:17:05Z
2023-02-09T19:17:47Z,42.805,6.029,13.3034,4.60114,2470.661,2023-2-09T21:20:08Z
2023-02-09T19:20:50Z,42.805,6.029,13.3046,4.60124,2470.637,2023-2-09T21:23:11Z
2023-02-09T19:23:53Z,42.805,6.029,13.3035,4.60123,2470.624,2023-2-09T21:26:14Z